FENGYUN 1C DEB, 30542

Orbit data source: Space-Track

FENGYUN 1C DEB, 30542 is space debris in SSO originally from a launch on Mon, 10 May 1999 UTC launched from the Taiyaun Space Center, China (TSC). Fengyun 1C debris stems from the Chinese weather satellite Fengyun-1C, which was intentionally destroyed by a Chinese anti-satellite missile in 2007. This event dramatically increased the amount of space debris, with thousands of trackable fragments posing hazards to satellites and human spaceflight. The Fengyun 1C debris cloud has become a focal point in discussions about space sustainability and the need for international regulations to prevent the creation of new debris.

Loading next visibility...
Identifier
30542, 1999-025AKG
Orbit
SSO
Country
Flag of CNCN / PRC
Related business
Manufacturer
Unknown
Mission
Spacecraft
Bus & Motor
Unknown
Mass
Unknown
Launch date (UTC)
1999-05-10 (27 years ago)
Launch vehicle
Unknown
Launch site
Taiyaun Space Center, China (TSC)
Object type
Payload
Rocket body
Debris
Shape & HBR
Unknown shape, 0.1 m
Radar Cross Section
Small (<0.1 m²)

Expand to show TLE details & history
Last TLE update: 8 hours ago

TLE from 8 hours ago
0 FENGYUN 1C DEB
1 30542U 99025AKG 26071.59872343  .00000363  00000-0  24195-3 0  9992
2 30542  98.7771 102.7694 0029084  80.4844  44.9436 14.07026420981829
Epoch: 2026-03-12T14:22Z
TLE epoch observation values (Epoch: 2026-03-12T14:22:09.704Z)
Latitude
53.51176°
Longitude
-91.03283°
Altitude
863.399 km
Speed
7.434 km/s
True Right ascension
19h 39m 00s
True Declination
53° 20' 59"
Sunlit
Object was in daylight at epoch
Visualization orbit readout
Latitude
Unknown
Longitude
Unknown
Altitude
Unknown
Speed
Unknown
Apparent Right ascension
Unknown
Apparent Declination
Unknown
Sunlit
N/A
Visualization observer readout
Local Sidereal Time
02:24:41
Azimuth
Unknown
Elevation
Unknown
Doppler factor
Unknown
Orbital elements
Apogee altitude
887.815 km
Perigee altitude
845.673 km
Semi-major axis
7,244.881 km
Eccentricity
0.00291
Inclination
98.7771°
RAAN
102.7694°
Arg. of periapsis
80.4844°
True anomaly
45.17964°
Mean anomaly
44.9436°
Eccentric anomaly
45.06156°
Mean motion
3.51962 °/min
Orbital period
102.28 mins
BSTAR
0.00024195
Loading maneuver chart data...
Computing Atmospheric mass density...

Documentation

Showing up to 5 results
|